星链-30829 (STARLINK-30829 )

导读 | 豆包AI

STARLINK-30829是美国太空探索技术公司星链星座的成员,于2023年10月29日发射升空,归属美国Starlink计划。该卫星旨在为全球提供高速互联网覆盖,尤其服务偏远地区与网络基础设施匮乏区域,依靠低轨运行降低通信延迟,是星链大规模组网进程中的一环,推进全球卫星互联网布局的完善。

基本信息
目录编号:
58158
目录名称:
STARLINK-30829
国际标识:
2023-166J
轨道中心:
EARTH
卫星名称:
星链-30829
卫星全名:
星链-30829 (STARLINK-30829 )
卫星状态:
在轨 (已飞行914 天)
发射日期:
2023-10-29 UTC
国别 :
美国 (US)
星等 :
--
轨道信息
数据来源 国际轨道数据
星历时间: 2026-04-30T05:11:55+0800
21小时前
查看轨道信息
半长轴: 6853.375km
偏心率: 0.0001552
轨道倾角: 53.163°
近地点辐角 92.480°
升交点赤经 342.077°
平近点角 267.638°
近地点: 474.174km
远地点: 476.302km
周期: 94.106分钟
每日圈数: 15.301925
详细信息
固有亮度:
5
最大亮度:
0.3
卫星平台:
Starlink v2.0 mini
覆盖范围:
全球
运营商:
太空探索技术公司
运营商所在国:
美国
制造商(研发单位):
太空探索技术公司
制造商所在国:
美国
使用方式:
暂无
卫星简介
星链(Starlink)计划是由太空探索技术公司(SpaceX)提出的一个巨型低轨卫星互联网星座项目,计划在2019年至2024年间在太空搭建由约1.2万颗卫星组成的“星链”网络,其中1584颗将部署在地球上空550千米处的近地轨道,并从2020年开始工作。该卫星仍在工作。
2D轨道图
3D轨道图
轨道高度分析图
轨道倾角分析图
轨道综合分析图
查看轨道综合分析图